STARLINK BD

Last updated on June 19, 2020, 12:02 a.m. UTC

1 45781U 20038BD  20170.75001157  .00147453  11294-4  17651-3 0  9992
2 45781  52.9996 271.7930 0109177  69.4122 154.7643 15.96931965  1954

Satellite is not in orbit.